When you browse on this site, cookies collect data to enhance your experience and personalize the content and advertising you see.
Visit our Privacy Policy to learn more. By continuing to use the site, you agree to this use of cookies and data.
  • In Hungary
  • List of Countries
  • For 7 days
  • Water Temperature
  • Satellite Maps
  • Weather Map
  • News
  • Weather Widgets
  • user-avatar
    Login

    Hourly Weather Chhatarpur

    Today, 23 January, Wednesday

    Time Temperature Precipitation Wind Pressure Humidity
    00:00 +19°C° 0 mm 2 mps 733 mmHg 48%
    01:00 +19°C° 0 mm 2 mps 733 mmHg 50%
    02:00 +19°C° 0 mm 2 mps 733 mmHg 53%
    03:00 +18°C° 0 mm 2 mps 733 mmHg 57%
    04:00 +18°C° 0 mm 1 mps 733 mmHg 61%
    05:00 +16°C° 0 mm 1 mps 733 mmHg 77%
    06:00 +18°C° 0.2 mm 1 mps 733 mmHg 76%
    07:00 +18°C° 0.2 mm 1 mps 734 mmHg 75%
    08:00 +19°C° 0.2 mm 1 mps 734 mmHg 74%
    09:00 +21°C° 0 mm 1 mps 734 mmHg 63%
    10:00 +23°C° 0 mm 2 mps 734 mmHg 53%
    11:00 +25°C° 0 mm 2 mps 735 mmHg 43%
    12:00 +26°C° 0 mm 2 mps 734 mmHg 40%
    13:00 +26°C° 0 mm 2 mps 734 mmHg 38%
    14:00 +27°C° 0 mm 2 mps 733 mmHg 35%
    15:00 +26°C° 0 mm 2 mps 733 mmHg 36%
    16:00 +26°C° 0 mm 2 mps 733 mmHg 38%
    17:00 +25°C° 0 mm 2 mps 733 mmHg 39%
    18:00 +24°C° 0 mm 3 mps 734 mmHg 48%
    19:00 +21°C° 0 mm 4 mps 734 mmHg 57%
    20:00 +20°C° 0 mm 5 mps 735 mmHg 65%
    21:00 +19°C° 0 mm 4 mps 735 mmHg 70%
    22:00 +18°C° 0 mm 3 mps 735 mmHg 75%
    23:00 +17°C° 0 mm 2 mps 735 mmHg 80%

    Tomorrow, 24 January, Thursday

    Time Temperature Precipitation Wind Pressure Humidity
    00:00 +17°C° 0 mm 2 mps 735 mmHg 83%
    01:00 +16°C° 0 mm 2 mps 735 mmHg 86%
    02:00 +16°C° 0 mm 2 mps 735 mmHg 90%
    03:00 +15°C° 0 mm 2 mps 735 mmHg 91%
    04:00 +15°C° 0 mm 2 mps 736 mmHg 93%
    05:00 +14°C° 0 mm 2 mps 736 mmHg 95%
    06:00 +14°C° 0 mm 3 mps 736 mmHg 89%
    07:00 +16°C° 0 mm 3 mps 737 mmHg 83%
    08:00 +16°C° 0 mm 3 mps 737 mmHg 78%
    09:00 +19°C° 0 mm 3 mps 737 mmHg 66%
    10:00 +21°C° 0 mm 3 mps 737 mmHg 54%
    11:00 +25°C° 0 mm 4 mps 737 mmHg 42%
    12:00 +26°C° 0 mm 4 mps 737 mmHg 38%
    13:00 +27°C° 0 mm 3 mps 736 mmHg 34%
    14:00 +28°C° 0 mm 3 mps 735 mmHg 30%
    15:00 +27°C° 0 mm 3 mps 735 mmHg 32%
    16:00 +26°C° 0 mm 3 mps 735 mmHg 34%
    17:00 +25°C° 0 mm 3 mps 735 mmHg 36%
    18:00 +22°C° 0 mm 4 mps 735 mmHg 41%
    19:00 +21°C° 0 mm 4 mps 736 mmHg 46%
    20:00 +20°C° 0 mm 5 mps 736 mmHg 51%
    21:00 +19°C° 0.1 mm 4 mps 736 mmHg 57%
    22:00 +18°C° 0.1 mm 3 mps 736 mmHg 64%
    23:00 +17°C° 0.1 mm 2 mps 736 mmHg 70%

    Day after tomorrow, 25 January, Friday

    Time Temperature Precipitation Wind Pressure Humidity
    00:00 +16°C° 0 mm 3 mps 736 mmHg 75%
    01:00 +14°C° 0 mm 3 mps 735 mmHg 80%
    02:00 +13°C° 0 mm 4 mps 735 mmHg 85%
    03:00 +13°C° 0.1 mm 4 mps 735 mmHg 87%
    04:00 +13°C° 0.1 mm 4 mps 735 mmHg 89%
    05:00 +12°C° 0.1 mm 5 mps 734 mmHg 90%
    06:00 +13°C° 0.1 mm 4 mps 735 mmHg 89%
    07:00 +13°C° 0.1 mm 4 mps 736 mmHg 88%
    08:00 +13°C° 0.1 mm 4 mps 736 mmHg 86%
    09:00 +14°C° 0.3 mm 4 mps 736 mmHg 83%
    10:00 +15°C° 0.3 mm 4 mps 736 mmHg 80%
    11:00 +17°C° 0.3 mm 4 mps 736 mmHg 77%
    12:00 +17°C° 0.1 mm 4 mps 735 mmHg 77%
    13:00 +17°C° 0.1 mm 4 mps 735 mmHg 76%
    14:00 +16°C° 0.1 mm 5 mps 734 mmHg 76%
    15:00 +17°C° 0 mm 4 mps 734 mmHg 77%
    16:00 +17°C° 0 mm 4 mps 734 mmHg 77%
    17:00 +15°C° 0 mm 4 mps 734 mmHg 78%
    18:00 +14°C° 0 mm 4 mps 735 mmHg 82%
    19:00 +13°C° 0 mm 3 mps 736 mmHg 86%
    20:00 +12°C° 0 mm 3 mps 736 mmHg 90%
    21:00 +12°C° 0 mm 3 mps 736 mmHg 91%
    22:00 +13°C° 0 mm 2 mps 736 mmHg 92%
    23:00 +12°C° 0 mm 2 mps 736 mmHg 94%

    26 January, Saturday

    Time Temperature Precipitation Wind Pressure Humidity
    00:00 +12°C° 0 mm 2 mps 736 mmHg 94%
    01:00 +10°C° 0 mm 2 mps 736 mmHg 94%
    02:00 +10°C° 0 mm 2 mps 736 mmHg 94%
    03:00 +10°C° 0 mm 2 mps 736 mmHg 94%
    04:00 +9°C° 0 mm 2 mps 736 mmHg 94%
    05:00 +9°C° 0 mm 2 mps 736 mmHg 94%
    06:00 +9°C° 0 mm 2 mps 736 mmHg 89%
    07:00 +10°C° 0 mm 2 mps 737 mmHg 83%
    08:00 +12°C° 0 mm 2 mps 738 mmHg 78%
    09:00 +14°C° 0 mm 3 mps 738 mmHg 69%
    10:00 +17°C° 0 mm 3 mps 738 mmHg 60%
    11:00 +19°C° 0 mm 4 mps 738 mmHg 51%
    12:00 +20°C° 0 mm 4 mps 738 mmHg 47%
    13:00 +21°C° 0 mm 4 mps 737 mmHg 42%
    14:00 +22°C° 0 mm 4 mps 737 mmHg 38%
    15:00 +21°C° 0 mm 4 mps 736 mmHg 42%
    16:00 +20°C° 0 mm 4 mps 736 mmHg 46%
    17:00 +19°C° 0 mm 3 mps 736 mmHg 50%
    18:00 +18°C° 0 mm 3 mps 737 mmHg 58%
    19:00 +16°C° 0 mm 3 mps 738 mmHg 67%
    20:00 +15°C° 0 mm 2 mps 738 mmHg 76%
    21:00 +14°C° 0 mm 2 mps 738 mmHg 81%
    22:00 +13°C° 0 mm 2 mps 739 mmHg 86%
    23:00 +13°C° 0 mm 2 mps 739 mmHg 91%

    27 January, Sunday

    Time Temperature Precipitation Wind Pressure Humidity
    00:00 +13°C° 0 mm 2 mps 739 mmHg 92%
    01:00 +12°C° 0 mm 2 mps 738 mmHg 93%
    02:00 +12°C° 0 mm 2 mps 738 mmHg 95%
    03:00 +12°C° 0 mm 2 mps 738 mmHg 95%
    04:00 +10°C° 0 mm 2 mps 738 mmHg 95%
    05:00 +10°C° 0 mm 2 mps 738 mmHg 95%
    06:00 +12°C° 0 mm 2 mps 739 mmHg 90%
    07:00 +13°C° 0 mm 2 mps 740 mmHg 85%
    08:00 +14°C° 0 mm 2 mps 741 mmHg 79%
    09:00 +16°C° 0 mm 3 mps 741 mmHg 69%
    10:00 +17°C° 0 mm 3 mps 741 mmHg 58%
    11:00 +19°C° 0 mm 3 mps 740 mmHg 48%
    12:00 +20°C° 0 mm 3 mps 740 mmHg 42%
    13:00 +21°C° 0 mm 3 mps 739 mmHg 37%
    14:00 +22°C° 0 mm 3 mps 738 mmHg 31%
    15:00 +21°C° 0 mm 3 mps 738 mmHg 32%
    16:00 +21°C° 0 mm 3 mps 738 mmHg 33%
    17:00 +20°C° 0 mm 3 mps 737 mmHg 34%
    18:00 +18°C° 0 mm 3 mps 738 mmHg 41%
    19:00 +17°C° 0 mm 3 mps 738 mmHg 48%
    20:00 +14°C° 0 mm 3 mps 739 mmHg 55%
    21:00 +13°C° 0 mm 3 mps 739 mmHg 59%
    22:00 +14°C° 0 mm 2 mps 739 mmHg 62%
    23:00 +13°C° 0 mm 2 mps 739 mmHg 66%

    28 January, Monday

    Time Temperature Precipitation Wind Pressure Humidity
    00:00 +13°C° 0 mm 2 mps 739 mmHg 67%
    01:00 +12°C° 0 mm 2 mps 739 mmHg 68%
    02:00 +12°C° 0 mm 2 mps 739 mmHg 70%
    03:00 +10°C° 0 mm 2 mps 739 mmHg 71%
    04:00 +10°C° 0 mm 2 mps 739 mmHg 72%
    05:00 +9°C° 0 mm 2 mps 739 mmHg 74%
    06:00 +10°C° 0 mm 2 mps 740 mmHg 69%
    07:00 +12°C° 0 mm 2 mps 740 mmHg 65%
    08:00 +13°C° 0 mm 2 mps 741 mmHg 60%
    09:00 +15°C° 0 mm 2 mps 741 mmHg 50%
    10:00 +18°C° 0 mm 3 mps 741 mmHg 40%
    11:00 +20°C° 0 mm 3 mps 740 mmHg 30%
    12:00 +21°C° 0 mm 3 mps 739 mmHg 26%
    13:00 +22°C° 0 mm 3 mps 739 mmHg 22%
    14:00 +24°C° 0 mm 3 mps 738 mmHg 19%
    15:00 +22°C° 0 mm 3 mps 738 mmHg 20%
    16:00 +21°C° 0 mm 3 mps 737 mmHg 21%
    17:00 +20°C° 0 mm 3 mps 737 mmHg 22%
    18:00 +18°C° 0 mm 3 mps 738 mmHg 28%
    19:00 +16°C° 0 mm 3 mps 738 mmHg 33%
    20:00 +14°C° 0 mm 2 mps 738 mmHg 39%
    21:00 +13°C° 0 mm 2 mps 738 mmHg 42%
    22:00 +13°C° 0 mm 2 mps 739 mmHg 45%
    23:00 +12°C° 0 mm 2 mps 739 mmHg 48%
    Show more